Other Public Products
Issued by NWS Grand Forks, ND

Home | Current Version | Previous Version | Graphics & Text | Print | Product List | Glossary On
Versions: 1 2 3 4 5 6 7 8 9 10 11 12 13 14 15 16 17 18 19 20 21 22 23 24 25 26 27 28 29 30 31 32 33 34 35 36 37 38 39 40 41 42 43 44 45 46 47 48 49 50
739
FPUS83 KFGF 140810
OPUFGF
PRAIRIE TO PINES WEATHER ROUNDUP
NATIONAL WEATHER SERVICE EASTERN NORTH DAKOTA/GRAND FORKS ND
200 AM CST SUN FEB 14 2016

 **SATELLITE DATA USED TO AUGMENT SKY COVER AT AUTOMATED STATIONS**
 *****  WEATHER ACROSS EASTERN NORTH DAKOTA  *****

CITY           SKY/WX    TMP DP  RH WIND       PRES   REMARKS
GRAND FORKS    LGT SNOW  13   7  77 S20G26    29.98F WCI  -5
GRAND FORKS AF CLOUDY    10   7  85 S21       29.96F BLWGSNOWWCI  -9
GRAND CITY NWS NOT AVBL
BUXTON         NOT AVBL
DEVILS LAKE    LGT SNOW  12   9  85 S16       29.84F FOG     WCI  -4
FARGO          CLOUDY    14   5  67 S24       30.01F WCI  -5
WAHPETON ARPT  CLOUDY    12   7  79 SE22G28   30.01F WCI  -7
$$

 *****  WEATHER ACROSS CENTRAL AND WESTERN NORTH DAKOTA  *****

CITY           SKY/WX    TMP DP  RH WIND       PRES   REMARKS
JAMESTOWN      LGT SNOW  13   9  84 S18       29.85F FOG     WCI  -4
BISMARCK       CLOUDY    20  17  88 S3        29.79F FOG
MINOT          CLOUDY    20  14  77 S6        29.74F WCI  12
MINOT AFB      CLOUDY    18  18 100 CALM      29.74S
GARRISON         N/A     21  20  96 NW6       29.75F WCI  13
WILLISTON      CLOUDY    30  27  88 W6        29.79F WCI  24
DICKINSON      CLOUDY    31  29  92 NW23G32   29.76S WCI  18
HETTINGER      CLOUDY    35  31  85 NW30G37   29.80S WCI  22
$$

 *****  OTHER OBSERVATIONS NORTHEAST NORTH DAKOTA  *****

CITY           SKY/WX    TMP DP  RH WIND       PRES   REMARKS
WALHALLA         N/A     10  10 100 SE17      29.93F WCI  -7
LANGDON        NOT AVBL
CAVALIER       NOT AVBL
GRAFTON        NOT AVBL
CANDO          NOT AVBL
FORT TOTTEN    NOT AVBL
ROLLA          PTSUNNY   10   7  85 S12       29.79F FOG     WCI  -4
RUGBY          NOT AVBL
 ***** THE ABOVE OBSERVATIONS ARE NON NWS ARE NOT QUALITY
        CONTROLLED AND MAY MIS-REPORT RAIN FOR SNOW...
$$

 *****  OTHER OBSERVATIONS SOUTHEAST NORTH DAKOTA *****

CITY           SKY/WX    TMP DP  RH WIND       PRES   REMARKS
COOPERSTOWN    NOT AVBL
VALLEY CITY    NOT AVBL
OAKES          LGT SNOW  14  12  92 S13G18    29.92F VSB 3/4 WCI   0
GWINNER        CLOUDY    14  12  92 SE13      29.94F VSB 3/4 WCI   0
SHEYENNE NWR     N/A     11   7  83 S14       29.95S WCI  -5
BUFFALO        NOT AVBL
WYNDMERE       NOT AVBL
 ***** THE ABOVE OBSERVATIONS ARE NON NWS ARE NOT QUALITY
       CONTROLLED AND MAY MIS-REPORT RAIN FOR SNOW...
$$

  *****  WEATHER ACROSS NORTHERN MINNESOTA  *****

CITY           SKY/WX    TMP DP  RH WIND       PRES   REMARKS
FLAG ISLAND    CLOUDY     3  -8  60 S21       30.06F WCI -18
WARROAD        CLOUDY     9  -4  56 SE10      30.05F WCI  -6
ROSEAU         CLOUDY    10   0  61 SE14G21   30.03F WCI  -5
HALLOCK        FLURRIES  12   7  79 S21       29.99F WCI  -6
THF RVR FALLS  CLOUDY    10   3  72 SE14G20   30.02F WCI  -5
HALSTAD        NOT AVBL
FOSSTON        CLOUDY    10   0  61 SE13G18   30.03F WCI  -5
BAUDETTE       CLOUDY     2 -11  54 SE12      30.08F WCI -15
WASKISH        CLOUDY     7  -8  51 SE7       30.10F WCI  -5
CROOKSTON      LGT SNOW  12   9  85 S16       30.03F WCI  -4
$$
  *****  WEATHER ACROSS CENTRAL AND WEST MINNESOTA  *****

CITY           SKY/WX    TMP DP  RH WIND       PRES   REMARKS
BEMIDJI        CLOUDY     6  -5  60 SE12      30.07F WCI -10
PARK RAPIDS    CLOUDY     9  -4  55 SE15      30.07F WCI  -8
WADENA         CLOUDY     9  -2  61 SE15      30.08F WCI  -8
DETROIT LAKES  CLOUDY    12   5  73 SE17      30.03F WCI  -5
MOORHEAD       CLOUDY    12   5  73 SE18      30.02F WCI  -5
FERGUS FALLS   CLOUDY    10   5  79 SE21      30.07F WCI  -9
ELBOW LAKE     CLOUDY    10   6  81 E21G30    30.04F WCI  -9
MORRIS MN      FLURRIES  10   7  85 SE18G25   30.04F WCI  -8
STAPLES        CLOUDY     9  -6  52 SE8       30.11F WCI  -4
WHEATON        FLURRIES  12   9  85 SE21      30.03F WCI  -6
$$
  *****  WEATHER ELSEWHERE ACROSS MINNESOTA  *****

CITY           SKY/WX    TMP DP  RH WIND       PRES   REMARKS
DULUTH         CLOUDY    -2 -15  54 S7        30.22F WCI -15
INTRNTL FALLS  CLOUDY   -13 -20  71 SE7       30.16F WCI -29
ELY            CLOUDY   -20 -27  69 CALM      30.21S
CLOQUET        CLOUDY    -4 -17  54 SE3       30.22F
BRAINERD       CLOUDY     7  -7  52 SE8       30.15F WCI  -6
HIBBING        CLOUDY   -14 -18  82 SE5       30.20F WCI -26
ALEXANDRIA     CLOUDY     9   1  70 SE17G24   30.07F WCI  -9
SAINT CLOUD    CLOUDY     9  -4  55 SE12      30.18F WCI  -6
MINNEAPOLIS    CLOUDY     9  -5  53 SE10      30.24F WCI  -5
$$

  *****  WEATHER ACROSS SOUTH DAKOTA  *****

CITY           SKY/WX    TMP DP  RH WIND       PRES   REMARKS
SIOUX FALLS    LGT SNOW  13   8  81 SE13      29.99F WCI  -2
BROOKINGS      LGT SNOW  10   7  85 S20       29.95F FOG     WCI  -8
WATERTOWN      LGT SNOW  12   7  80 S20G26    29.92F VSB 3/4 WCI  -6
HURON          CLOUDY    14  10  84 SE17G30   29.92F WCI  -3
SISSETON         N/A     11   8  88 S17       29.98F WCI  -6
ABERDEEN       FOG       15  11  83 S20G32    29.91F VSB 1/2 WCI  -2
MITCHELL       SNOW      16  11  80 SE20      29.92F VSB 1/2 WCI  -1
PIERRE         CLOUDY    24  23  96 MISG      29.80F
MOBRIDGE       CLOUDY    19  16  88 SE13      29.78F FOG     WCI   6
RAPID CITY     CLEAR     39  27  62 NW20G30   29.87R
$$

  *****  SOME WEATHER IN NEARBY STATES *****

CITY           SKY/WX    TMP DP  RH WIND       PRES   REMARKS
GLASGOW MT     CLEAR     28  25  88 W6        29.82F WCI  22
GREAT FALLS MT CLOUDY    39  21  48 SW18      29.88F
CHEYENNE WY    CLEAR     33  17  51 NW16G30   30.02F WCI  23
SCOTTSBLUFF NE CLEAR     33  25  72 NW10      30.03S WCI  25
OMAHA NE       CLOUDY    20   5  52 SE21      30.10F WCI   4
DES MOINES IA  CLOUDY    16   8  71 SE12      30.21F WCI   3
DAVENPORT IA   CLOUDY    17   2  51 SE12      30.37F WCI   4
CHICAGO IL     CLOUDY    11  -2  56 E5        30.43F WCI   3
EAU CLAIRE WI  PTCLDY    -6 -13  71 CALM      30.32F
LA CROSSE WI   CLOUDY     6  -6  57 SE6       30.34F WCI  -4
$$

  *****  SOME NATIONAL WEATHER *****

CITY           SKY/WX    TMP DP  RH WIND       PRES   REMARKS
LA GUARDIA NY  PTCLDY     7  -7  52 NW23G30   30.35R WCI -14
RALEIGH NC     CLEAR     18  -1  43 CALM      30.45R
ATLANTA GA     CLOUDY    30   6  36 N7        30.34S WCI  23
NEW ORLEANS LA PTCLDY    48  38  68 E5        30.26F
OKLAHOMA CITY  PTCLDY    46  37  71 S20       29.91F
ALBUQUERQUE NM CLOUDY    49  13  23 NW7       30.10F
SALT LAKE CITY FOG       29  29 100 CALM      30.29  VSB 1/8
LOS ANGELES CA PTCLDY    53  50  89 CALM      30.06S FOG
BOISE ID       LGT RAIN  43  35  73 E6        30.18F
SEATTLE WA     CLOUDY    47  44  90 S15       30.09R FOG
$$

*** WEATHER ACROSS MANITOBA...SASKATCHEWAN AND ONTARIO ***
                ***ONTARIO***

CITY           SKY/WX    TMP DP  RH WIND       PRES   REMARKS
GERALDTON      CLEAR    -29 -35  75 CALM      30.29F
THUNDER BAY    MOCLDY   -18 -22  83 W6        30.35F WCI -33
SIOUX LOOKOUT  CLEAR    -11 -17  77 SE7       30.16F WCI -26
TORONTO        CLEAR     -9 -22  54 NW5       30.51S WCI -21
BIG TROUT LK   CLOUDY    -6 -13  71 S7        30.12F WCI -20
PICKLE LAKE    NOT AVBL
DRYDEN         CLEAR     -6 -13  71 S12       30.13F WCI -24
KENORA         MOCLDY     0 -13  55 S9        30.06F WCI -16
$$
                *** MANITOBA***

CITY           SKY/WX    TMP DP  RH WIND       PRES   REMARKS
BRANDON        LGT SNOW  10   9  92 SE8       29.82F VSB 3/4 WCI  -1
DAUPHIN        FLURRIES   9   5  85 SE7       29.81F WCI  -3
ISLAND LAKE    NOT AVBL
PILOT MOUND      N/A     10   7  85 S18G24      N/A  WCI  -8
THE PAS        FLURRIES   9   1  72 S12       29.73F WCI  -6
THOMPSON       FLURRIES   1  -8  66 S7        29.76F WCI -11
WINNIPEG       CLOUDY    12   1  62 S22G31    29.96F WCI  -7
LYNN LAKE      LGT SNOW   5   3  92 S10G17    29.56F WCI -10
CHURCHILL      CLOUDY     5  -4  66 SW16G22   29.77F WCI -14
$$
                ***SASKATCHEWAN***

CITY           SKY/WX    TMP DP  RH WIND       PRES   REMARKS
ESTEVAN        NOT AVBL
KINDERSLEY     PTCLDY    18  14  86 S10       29.71F WCI   6
LLOYDMINSTER   CLOUDY    28  23  80 W12G17    29.64F WCI  18
PRINCE ALBERT  CLOUDY    18  16  93 CALM      29.67F FOG
REGINA         FLURRIES  23  21  93 W7        29.73F WCI  15
YORKTON        FLURRIES  12   9  85 S8        29.72F WCI   1
N. BATTLEFORD  LGT SNOW  21 N/A N/A S2        29.69F VSC1F1C2F2C3F3C4F4C5F5C6F6C7F7C8F8C9F9CaFaCbFbCcFcCdFdCe!



USA.gov is the U.S. government's official web portal to all federal, state and local government web resources and services.